This is the latest recevied weather packets stored in our database for station/object LU8FCJ-5. If no packets are shown the sender has not sent any weather packets the latest 10 day(s).
| Time | Temp. | Humidity | Pressure | Rain* | Wind** | Luminosity | Snow |
|---|---|---|---|---|---|---|---|
| 1778086954 | 29.44° C | 70% | 1003 hPa | 0 mm | - | - | - |
| 1778086645 | 28.89° C | 72% | 1003.1 hPa | 0 mm | - | - | - |
| 1778086333 | 28.89° C | 71% | 1003.4 hPa | 0 mm | - | - | - |
| 1778086024 | 28.89° C | 72% | 1003.6 hPa | 0 mm | - | - | - |
| 1778085713 | 28.33° C | 74% | 1003.8 hPa | 0 mm | - | - | - |
| 1778085404 | 27.78° C | 75% | 1003.7 hPa | 0 mm | - | - | - |
| 1778085093 | 27.78° C | 76% | 1004.1 hPa | 0 mm | - | - | - |
| 1778084782 | 27.78° C | 77% | 1004 hPa | 0 mm | - | - | - |
| 1778084486 | 27.78° C | 77% | 1004.3 hPa | 0 mm | - | - | - |
| 1778084163 | 27.22° C | 77% | 1004.2 hPa | 0 mm | - | - | - |
| 1778083865 | 27.78° C | 75% | 1004.5 hPa | 0 mm | - | - | - |
| 1778083545 | 27.78° C | 76% | 1004.4 hPa | 0 mm | - | - | - |
| 1778083246 | 27.78° C | 76% | 1004.6 hPa | 0 mm | - | - | - |
| 1778082923 | 27.22° C | 76% | 1004.9 hPa | 0 mm | - | - | - |
| 1778082612 | 27.22° C | 76% | 1005.2 hPa | 0 mm | - | - | - |
| 1778082302 | 27.78° C | 75% | 1005 hPa | 0 mm | - | - | - |
| 1778081992 | 27.78° C | 76% | 1005.5 hPa | 0 mm | - | - | - |
| 1778081682 | 27.22° C | 78% | 1005.6 hPa | 0 mm | - | - | - |
| 1778081371 | 27.22° C | 78% | 1005.3 hPa | 0 mm | - | - | - |
| 1778081062 | 27.22° C | 78% | 1005.3 hPa | 0 mm | - | - | - |
| 1778080751 | 27.22° C | 78% | 1005.6 hPa | 0 mm | - | - | - |
| 1778080442 | 27.22° C | 80% | 1005.9 hPa | 0 mm | - | - | - |
| 1778080131 | 27.22° C | 80% | 1005.8 hPa | 0 mm | - | - | - |
| 1778079821 | 26.67° C | 82% | 1006.1 hPa | 0 mm | - | - | - |
| 1778079511 | 25.56° C | 84% | 1005.9 hPa | 0 mm | - | - | - |
* Rain latest hour (hover to see other rain measurements)
** Current wind speed in m/s (hover to see current wind gust speed)